Weather in Grazhdanskoe

Russia / Stavropol Krai     44°13′40″N   42°46′28″E
temp.,
°C
wind,
m/s
gust,
m/s
humid.,
%
clouds,
%
prec.,
mm/h
press.,
hPa
HPBL,
m
19 may, wed
wed1900:00+13ese22910 0.0 101030
03:00+12ese3593100 0.0 100892
06:00+14w358440 0.0 1009182
09:00+17wnw337593 0.0 1010558
12:00+17nw798094 0.6 1013961
15:00+18nw5767100 1.1 10141353
18:00+17nne357097 0.1 1015312
21:00+13ne117512 0.1 101710
20 may, thu
thu2000:00+11sse22860 0.0 101713
03:00+10sse229155 0.0 101612
06:00+12s118424 0.0 101660
09:00+19ese45615 0.0 1015849
12:00+22ese66515 0.0 10141212
15:00+23ese56470 0.0 10131205
18:00+20e59625 0.0 1013369
21:00+15ese34771 0.0 101451
21 may, fri
fri2100:00+13ese34805 0.0 101351
03:00+12ese22845 0.0 101317
06:00+13e23760 0.0 101281
09:00+21e46570 0.0 1011423
12:00+26e69490 0.0 1009621
15:00+27e574848 0.0 1008805
18:00+25e48655 0.0 1009235
21:00+18ese33855 0.0 100938
22 may, sat
sat2200:00+16e2390100 0.0 100827
03:00+15e118593 0.0 100812
06:00+17e127455 0.0 100730
09:00+24e34495 0.0 1006327
12:00+29ene3444100 0.0 1006755
15:00+30ene444934 0.0 1005972
18:00+27ne2465100 0.0 1005167
21:00+21w3379100 0.1 100626
23 may, sun
sun2300:00+19w338999 0.0 100657
03:00+19w3992100 0.0 1006240
06:00+19w388998 0.0 1006323
09:00+23wnw567390 0.0 1006738
12:00+26nw33600 0.0 10061040
15:00+28ene44562 0.0 10041363
18:00+25ene3774100 0.1 1005197
21:00+20w3591100 6.1 1007101